Precipitable_Water
0.34 0.24 0.22 0.20 0.21 0.22 0.24 0.24 0.23 0.21 0.19 0.18 0.17 0.16 0.15 0.15 0.16 0.18 0.18 0.20 0.21 0.18 0.16 0.16 0.17 0.19 0.25 0.32 0.34 0.36 0.36 0.32 0.34 0.34 0.38 0.47 0.52 0.63 0.68 0.69 0.73 0.73 0.79 0.91 0.93 0.94 0.95 0.99 1.07 1.09 1.09 1.10 1.13 1.15 1.18 1.18 1.20 1.22 1.22 1.21 1.16 1.20 1.21 1.17 1.16 1.16 1.15 1.11 1.13 1.19 1.17 1.15 1.23 1.22 1.23 1.23 1.29 1.35 1.40 1.43 1.48 1.52 1.56 1.58 1.62 1.66
0.32 0.23 0.22 0.23 0.24 0.23 0.23 0.24 0.23 0.21 0.20 0.19 0.17 0.16 0.16 0.15 0.15 0.17 0.18 0.21 0.22 0.17 0.16 0.17 0.20 0.24 0.31 0.36 0.39 0.39 0.32 0.33 0.37 0.40 0.42 0.43 0.50 0.57 0.63 0.67 0.71 0.76 0.87 0.89 0.87 0.91 0.93 0.98 1.06 1.11 1.06 1.06 1.02 1.10 1.16 1.15 1.17 1.19 1.23 1.21 1.22 1.24 1.24 1.25 1.25 1.23 1.19 1.16 1.15 1.16 1.18 1.21 1.22 1.21 1.17 1.18 1.26 1.33 1.40 1.44 1.45 1.50 1.53 1.55 1.57 1.62
0.23 0.21 0.24 0.25 0.25 0.25 0.24 0.23 0.23 0.20 0.19 0.20 0.18 0.17 0.16 0.16 0.18 0.19 0.21 0.22 0.21 0.18 0.16 0.20 0.20 0.26 0.31 0.38 0.43 0.40 0.41 0.45 0.48 0.47 0.47 0.48 0.49 0.53 0.58 0.63 0.68 0.73 0.77 0.83 0.85 0.89 0.93 0.99 1.05 1.11 1.09 1.07 1.10 1.14 1.19 1.21 1.19 1.20 1.21 1.25 1.27 1.28 1.28 1.29 1.31 1.29 1.22 1.23 1.25 1.26 1.26 1.26 1.23 1.29 1.27 1.26 1.30 1.35 1.38 1.44 1.45 1.50 1.54 1.58 1.61 1.63
0.19 0.22 0.26 0.27 0.25 0.22 0.22 0.22 0.22 0.21 0.20 0.19 0.18 0.16 0.15 0.17 0.16 0.16 0.21 0.23 0.22 0.19 0.18 0.21 0.20 0.30 0.36 0.41 0.41 0.47 0.47 0.48 0.54 0.55 0.52 0.53 0.52 0.54 0.57 0.62 0.66 0.69 0.74 0.78 0.83 0.86 0.95 1.02 1.07 1.11 1.14 1.14 1.18 1.21 1.22 1.24 1.22 1.22 1.24 1.28 1.30 1.30 1.33 1.35 1.38 1.38 1.37 1.35 1.34 1.35 1.34 1.35 1.32 1.27 1.31 1.29 1.32 1.34 1.37 1.40 1.47 1.52 1.57 1.61 1.60 1.62
0.20 0.24 0.26 0.25 0.24 0.22 0.20 0.21 0.20 0.19 0.18 0.20 0.19 0.17 0.16 0.16 0.17 0.19 0.21 0.22 0.23 0.22 0.22 0.22 0.20 0.26 0.34 0.30 0.34 0.45 0.54 0.50 0.54 0.55 0.53 0.56 0.59 0.61 0.63 0.65 0.70 0.69 0.74 0.81 0.89 0.95 1.02 1.04 1.07 1.12 1.19 1.20 1.19 1.18 1.20 1.24 1.23 1.24 1.27 1.32 1.33 1.32 1.35 1.39 1.42 1.42 1.42 1.40 1.36 1.36 1.37 1.39 1.35 1.34 1.29 1.26 1.23 1.28 1.32 1.33 1.39 1.48 1.53 1.54 1.57 1.61
0.23 0.25 0.25 0.22 0.22 0.23 0.20 0.19 0.19 0.19 0.17 0.17 0.19 0.17 0.17 0.17 0.16 0.19 0.22 0.20 0.19 0.17 0.20 0.18 0.14 0.19 0.33 0.35 0.36 0.46 0.48 0.46 0.56 0.50 0.49 0.53 0.56 0.59 0.58 0.61 0.69 0.74 0.80 0.82 0.86 0.91 0.98 1.00 1.05 1.11 1.15 1.18 1.19 1.18 1.22 1.24 1.27 1.29 1.31 1.29 1.27 1.27 1.30 1.33 1.35 1.38 1.37 1.32 1.28 1.26 1.22 1.18 1.18 1.12 1.15 1.12 1.15 1.21 1.23 1.25 1.37 1.42 1.47 1.50 1.53 1.60
0.22 0.25 0.24 0.22 0.20 0.19 0.19 0.17 0.18 0.18 0.16 0.15 0.15 0.18 0.18 0.17 0.17 0.18 0.19 0.19 0.16 0.14 0.19 0.21 0.14 0.15 0.30 0.32 0.39 0.44 0.46 0.48 0.55 0.52 0.53 0.55 0.56 0.57 0.59 0.62 0.66 0.70 0.74 0.81 0.86 0.92 0.95 1.00 1.02 1.07 1.08 1.16 1.15 1.19 1.25 1.25 1.22 1.17 1.17 1.18 1.18 1.19 1.22 1.26 1.28 1.32 1.32 1.28 1.27 1.27 1.26 1.23 1.20 1.15 1.16 1.25 1.28 1.28 1.31 1.34 1.32 1.36 1.43 1.47 1.50 1.55
0.23 0.24 0.23 0.23 0.22 0.19 0.17 0.15 0.17 0.16 0.14 0.13 0.17 0.17 0.17 0.17 0.16 0.17 0.19 0.20 0.19 0.20 0.22 0.21 0.18 0.16 0.19 0.30 0.43 0.46 0.45 0.47 0.50 0.52 0.53 0.56 0.57 0.59 0.61 0.64 0.66 0.68 0.71 0.74 0.79 0.85 0.92 0.96 1.00 1.03 1.10 1.12 1.13 1.19 1.24 1.27 1.25 1.21 1.18 1.20 1.24 1.22 1.24 1.24 1.27 1.29 1.29 1.24 1.25 1.26 1.26 1.24 1.22 1.26 1.35 1.37 1.34 1.33 1.35 1.33 1.33 1.36 1.48 1.52 1.53 1.53
0.22 0.19 0.20 0.20 0.21 0.19 0.16 0.16 0.16 0.16 0.12 0.12 0.15 0.17 0.16 0.17 0.16 0.19 0.21 0.20 0.21 0.19 0.16 0.18 0.21 0.15 0.19 0.33 0.47 0.47 0.39 0.43 0.45 0.49 0.53 0.57 0.60 0.62 0.63 0.65 0.67 0.69 0.72 0.75 0.76 0.80 0.86 0.92 0.98 1.04 1.07 1.14 1.18 1.19 1.19 1.19 1.19 1.24 1.21 1.20 1.25 1.23 1.27 1.29 1.30 1.32 1.37 1.38 1.36 1.32 1.25 1.14 1.14 1.18 1.21 1.27 1.30 1.28 1.34 1.32 1.35 1.39 1.41 1.45 1.50 1.55
0.22 0.22 0.21 0.22 0.22 0.18 0.19 0.19 0.18 0.15 0.11 0.12 0.16 0.18 0.18 0.19 0.20 0.22 0.22 0.21 0.21 0.17 0.15 0.17 0.19 0.14 0.20 0.32 0.36 0.45 0.41 0.39 0.45 0.51 0.55 0.57 0.60 0.63 0.63 0.66 0.70 0.72 0.74 0.77 0.79 0.82 0.87 0.93 0.97 1.03 1.09 1.11 1.14 1.16 1.19 1.21 1.21 1.19 1.19 1.09 1.17 1.21 1.24 1.29 1.31 1.33 1.36 1.38 1.38 1.31 1.29 1.13 1.05 1.10 1.21 1.26 1.27 1.29 1.31 1.29 1.29 1.43 1.38 1.46 1.48 1.51
0.24 0.27 0.31 0.28 0.25 0.24 0.23 0.23 0.22 0.18 0.13 0.15 0.15 0.16 0.17 0.20 0.22 0.24 0.23 0.21 0.19 0.15 0.16 0.18 0.20 0.18 0.15 0.28 0.35 0.34 0.37 0.47 0.50 0.54 0.59 0.62 0.64 0.66 0.68 0.68 0.70 0.71 0.74 0.76 0.79 0.82 0.85 0.92 0.97 1.02 1.03 1.07 1.13 1.18 1.20 1.18 1.19 1.21 1.12 1.10 1.09 1.17 1.16 1.20 1.25 1.33 1.37 1.40 1.38 1.27 1.18 1.08 1.02 1.11 1.13 1.14 1.16 1.23 1.26 1.25 1.33 1.34 1.34 1.41 1.43 1.44
0.26 0.27 0.26 0.27 0.28 0.27 0.26 0.23 0.25 0.24 0.18 0.16 0.16 0.16 0.18 0.20 0.22 0.20 0.20 0.21 0.15 0.14 0.17 0.22 0.20 0.20 0.13 0.27 0.38 0.49 0.57 0.58 0.55 0.51 0.55 0.58 0.62 0.65 0.68 0.70 0.72 0.73 0.73 0.74 0.76 0.79 0.84 0.87 0.91 0.96 0.98 1.03 1.06 1.10 1.14 1.18 1.18 1.17 1.12 1.06 1.07 1.10 1.15 1.21 1.28 1.34 1.37 1.36 1.35 1.27 1.18 1.19 1.22 1.20 1.17 1.15 1.15 1.20 1.21 1.26 1.27 1.31 1.35 1.37 1.40 1.39
0.21 0.23 0.26 0.27 0.30 0.26 0.24 0.23 0.22 0.21 0.21 0.20 0.19 0.18 0.15 0.15 0.16 0.14 0.16 0.14 0.14 0.14 0.19 0.24 0.22 0.19 0.23 0.36 0.44 0.51 0.56 0.59 0.60 0.59 0.58 0.61 0.63 0.65 0.68 0.69 0.71 0.73 0.73 0.73 0.73 0.75 0.79 0.81 0.84 0.88 0.94 1.00 1.02 1.04 1.10 1.13 1.14 1.17 1.17 1.13 1.09 1.13 1.22 1.25 1.28 1.27 1.30 1.29 1.31 1.23 1.17 1.16 1.15 1.13 1.16 1.19 1.21 1.26 1.21 1.22 1.24 1.27 1.29 1.33 1.34 1.38
0.18 0.24 0.25 0.25 0.26 0.28 0.26 0.20 0.19 0.16 0.20 0.20 0.18 0.18 0.15 0.12 0.12 0.11 0.14 0.16 0.16 0.18 0.23 0.22 0.28 0.21 0.38 0.42 0.53 0.53 0.60 0.63 0.63 0.63 0.64 0.62 0.62 0.65 0.66 0.67 0.68 0.69 0.70 0.71 0.72 0.73 0.74 0.77 0.80 0.83 0.87 0.91 0.94 0.98 1.03 1.08 1.11 1.14 1.17 1.19 1.16 1.16 1.20 1.24 1.25 1.25 1.26 1.26 1.28 1.28 1.22 1.21 1.20 1.16 1.15 1.17 1.18 1.20 1.21 1.22 1.24 1.27 1.28 1.32 1.34 1.35
0.15 0.16 0.21 0.24 0.21 0.27 0.25 0.23 0.22 0.18 0.19 0.19 0.21 0.19 0.16 0.14 0.12 0.10 0.13 0.12 0.13 0.15 0.20 0.28 0.19 0.21 0.26 0.38 0.59 0.62 0.67 0.67 0.67 0.67 0.66 0.66 0.65 0.65 0.66 0.66 0.66 0.66 0.68 0.70 0.71 0.71 0.71 0.74 0.77 0.80 0.83 0.87 0.90 0.94 0.97 1.01 1.05 1.08 1.11 1.14 1.14 1.16 1.20 1.21 1.24 1.20 1.20 1.27 1.29 1.26 1.27 1.25 1.22 1.20 1.18 1.20 1.22 1.19 1.19 1.23 1.26 1.31 1.34 1.32 1.40 1.46
0.18 0.19 0.25 0.28 0.27 0.27 0.24 0.26 0.26 0.22 0.20 0.22 0.23 0.23 0.18 0.17 0.19 0.14 0.16 0.15 0.15 0.16 0.17 0.22 0.23 0.36 0.35 0.61 0.69 0.71 0.67 0.65 0.65 0.64 0.65 0.63 0.64 0.64 0.62 0.62 0.63 0.65 0.67 0.69 0.69 0.70 0.72 0.74 0.76 0.78 0.81 0.85 0.89 0.92 0.95 0.96 0.98 0.98 1.01 1.05 1.09 1.11 1.16 1.20 1.22 1.23 1.22 1.21 1.25 1.25 1.20 1.22 1.23 1.22 1.25 1.26 1.28 1.28 1.27 1.25 1.26 1.29 1.32 1.34 1.35 1.38
0.21 0.19 0.27 0.28 0.29 0.27 0.28 0.28 0.26 0.25 0.16 0.21 0.21 0.18 0.19 0.24 0.21 0.18 0.18 0.20 0.20 0.17 0.17 0.28 0.29 0.40 0.53 0.58 0.65 0.69 0.65 0.63 0.63 0.64 0.64 0.63 0.64 0.64 0.61 0.62 0.64 0.65 0.66 0.68 0.69 0.70 0.72 0.75 0.77 0.79 0.80 0.82 0.84 0.87 0.90 0.93 0.96 0.99 1.01 1.04 1.08 1.12 1.17 1.19 1.22 1.23 1.24 1.23 1.23 1.25 1.25 1.26 1.24 1.22 1.23 1.27 1.28 1.30 1.31 1.28 1.28 1.29 1.32 1.36 1.37 1.38
0.20 0.22 0.28 0.26 0.24 0.28 0.31 0.31 0.30 0.28 0.28 0.25 0.19 0.22 0.27 0.29 0.25 0.19 0.14 0.17 0.15 0.13 0.21 0.27 0.25 0.29 0.32 0.27 0.59 0.59 0.58 0.60 0.61 0.60 0.62 0.62 0.62 0.60 0.61 0.62 0.62 0.64 0.66 0.69 0.71 0.72 0.74 0.77 0.79 0.81 0.83 0.84 0.85 0.89 0.92 0.95 0.99 1.00 1.02 1.03 1.06 1.10 1.13 1.17 1.20 1.21 1.23 1.22 1.21 1.23 1.24 1.27 1.28 1.25 1.26 1.31 1.34 1.38 1.35 1.30 1.28 1.31 1.31 1.31 1.33 1.35
0.27 0.21 0.26 0.29 0.29 0.30 0.34 0.31 0.29 0.31 0.31 0.27 0.25 0.32 0.22 0.19 0.17 0.20 0.18 0.14 0.14 0.14 0.20 0.27 0.31 0.31 0.33 0.33 0.47 0.46 0.48 0.50 0.54 0.57 0.57 0.58 0.60 0.60 0.60 0.61 0.63 0.66 0.68 0.70 0.71 0.73 0.75 0.77 0.79 0.81 0.83 0.87 0.89 0.91 0.93 0.95 0.97 0.98 1.00 1.04 1.06 1.06 1.11 1.13 1.17 1.19 1.22 1.22 1.22 1.23 1.24 1.27 1.29 1.30 1.31 1.34 1.38 1.38 1.34 1.33 1.31 1.31 1.34 1.35 1.35 1.36
0.28 0.22 0.24 0.33 0.31 0.32 0.33 0.30 0.23 0.26 0.31 0.32 0.32 0.29 0.32 0.25 0.21 0.18 0.17 0.18 0.17 0.15 0.17 0.22 0.29 0.24 0.38 0.41 0.48 0.47 0.49 0.50 0.53 0.55 0.55 0.57 0.59 0.60 0.60 0.60 0.61 0.62 0.64 0.67 0.69 0.71 0.73 0.76 0.79 0.81 0.83 0.85 0.88 0.90 0.92 0.92 0.93 0.93 0.96 0.98 1.02 1.06 1.09 1.11 1.11 1.13 1.16 1.19 1.19 1.20 1.23 1.28 1.31 1.33 1.34 1.38 1.39 1.43 1.31 1.36 1.34 1.35 1.34 1.34 1.36 1.36
0.25 0.29 0.22 0.29 0.35 0.32 0.25 0.32 0.26 0.26 0.25 0.26 0.26 0.25 0.26 0.26 0.29 0.25 0.23 0.18 0.16 0.15 0.16 0.17 0.17 0.26 0.38 0.53 0.53 0.51 0.51 0.53 0.53 0.52 0.54 0.56 0.58 0.60 0.61 0.60 0.61 0.62 0.63 0.66 0.68 0.70 0.72 0.74 0.77 0.79 0.82 0.84 0.88 0.90 0.91 0.91 0.90 0.90 0.92 0.93 0.95 0.96 0.99 1.02 1.06 1.09 1.12 1.17 1.19 1.19 1.19 1.22 1.28 1.34 1.40 1.40 1.38 1.33 1.33 1.35 1.37 1.33 1.37 1.37 1.34 1.35
0.25 0.27 0.24 0.29 0.28 0.29 0.32 0.39 0.38 0.34 0.31 0.27 0.25 0.23 0.24 0.23 0.21 0.17 0.17 0.26 0.20 0.17 0.16 0.16 0.16 0.28 0.43 0.57 0.57 0.54 0.56 0.55 0.57 0.55 0.54 0.57 0.58 0.59 0.59 0.61 0.63 0.62 0.64 0.65 0.67 0.69 0.70 0.72 0.74 0.77 0.80 0.82 0.84 0.85 0.85 0.87 0.88 0.86 0.85 0.87 0.89 0.92 0.93 0.96 1.01 1.06 1.10 1.14 1.16 1.16 1.20 1.23 1.27 1.33 1.37 1.37 1.34 1.29 1.32 1.35 1.39 1.32 1.34 1.32 1.34 1.35
0.31 0.34 0.31 0.28 0.30 0.32 0.38 0.42 0.44 0.42 0.37 0.34 0.31 0.27 0.29 0.26 0.24 0.20 0.16 0.20 0.23 0.21 0.24 0.22 0.19 0.25 0.49 0.56 0.57 0.57 0.58 0.58 0.59 0.58 0.56 0.57 0.58 0.60 0.62 0.63 0.64 0.64 0.64 0.65 0.67 0.69 0.71 0.71 0.72 0.73 0.75 0.76 0.77 0.79 0.80 0.81 0.81 0.81 0.82 0.83 0.84 0.84 0.87 0.91 0.96 1.02 1.07 1.12 1.14 1.16 1.19 1.21 1.23 1.28 1.29 1.30 1.31 1.31 1.35 1.36 1.37 1.40 1.33 1.31 1.31 1.34
0.37 0.32 0.29 0.33 0.37 0.40 0.43 0.45 0.44 0.44 0.40 0.32 0.33 0.36 0.30 0.24 0.25 0.22 0.21 0.24 0.21 0.23 0.20 0.21 0.17 0.27 0.49 0.57 0.57 0.59 0.60 0.60 0.60 0.59 0.57 0.58 0.60 0.61 0.61 0.61 0.62 0.63 0.65 0.66 0.68 0.69 0.70 0.71 0.71 0.71 0.70 0.71 0.72 0.74 0.75 0.76 0.77 0.77 0.77 0.78 0.79 0.79 0.81 0.84 0.89 0.95 1.01 1.07 1.12 1.16 1.18 1.19 1.22 1.23 1.25 1.25 1.26 1.26 1.28 1.26 1.27 1.31 1.35 1.33 1.30 1.29
0.26 0.32 0.30 0.27 0.28 0.31 0.34 0.37 0.38 0.42 0.40 0.34 0.32 0.34 0.35 0.33 0.30 0.29 0.27 0.29 0.21 0.24 0.24 0.19 0.15 0.24 0.44 0.55 0.57 0.58 0.57 0.56 0.56 0.59 0.60 0.58 0.60 0.60 0.61 0.62 0.62 0.63 0.64 0.65 0.65 0.66 0.68 0.68 0.68 0.68 0.69 0.69 0.70 0.72 0.72 0.73 0.74 0.74 0.74 0.74 0.74 0.75 0.78 0.80 0.83 0.86 0.90 0.97 1.04 1.12 1.14 1.14 1.17 1.19 1.22 1.25 1.29 1.31 1.30 1.26 1.26 1.29 1.26 1.29 1.32 1.29
0.28 0.32 0.28 0.22 0.20 0.19 0.19 0.21 0.24 0.27 0.32 0.37 0.38 0.37 0.36 0.32 0.29 0.27 0.22 0.24 0.19 0.26 0.26 0.21 0.22 0.34 0.47 0.52 0.52 0.54 0.55 0.55 0.58 0.59 0.61 0.63 0.62 0.62 0.63 0.62 0.61 0.61 0.61 0.63 0.65 0.65 0.65 0.65 0.66 0.66 0.67 0.68 0.68 0.69 0.70 0.71 0.72 0.72 0.72 0.72 0.73 0.73 0.75 0.76 0.78 0.80 0.82 0.87 0.93 1.01 1.07 1.10 1.10 1.11 1.18 1.21 1.24 1.29 1.33 1.30 1.27 1.27 1.30 1.32 1.32 1.32
0.31 0.36 0.31 0.26 0.24 0.23 0.25 0.28 0.36 0.38 0.36 0.30 0.34 0.35 0.35 0.36 0.35 0.32 0.29 0.24 0.21 0.27 0.25 0.28 0.29 0.33 0.38 0.44 0.47 0.50 0.53 0.54 0.56 0.58 0.58 0.60 0.62 0.63 0.63 0.62 0.62 0.61 0.61 0.61 0.62 0.65 0.66 0.65 0.65 0.65 0.65 0.66 0.67 0.68 0.68 0.69 0.70 0.71 0.72 0.72 0.73 0.74 0.75 0.76 0.77 0.77 0.77 0.79 0.82 0.88 0.97 1.04 1.09 1.11 1.11 1.16 1.18 1.23 1.27 1.30 1.31 1.30 1.29 1.32 1.33 1.33
0.33 0.30 0.34 0.32 0.31 0.32 0.36 0.36 0.41 0.40 0.33 0.36 0.36 0.35 0.38 0.36 0.36 0.32 0.27 0.25 0.33 0.28 0.24 0.34 0.37 0.32 0.36 0.42 0.46 0.49 0.53 0.56 0.57 0.58 0.59 0.60 0.60 0.59 0.59 0.60 0.60 0.60 0.61 0.61 0.62 0.63 0.63 0.64 0.64 0.64 0.64 0.64 0.65 0.67 0.67 0.69 0.69 0.70 0.70 0.70 0.72 0.73 0.74 0.75 0.75 0.75 0.75 0.75 0.75 0.78 0.83 0.91 1.00 1.07 1.11 1.12 1.13 1.15 1.20 1.27 1.31 1.32 1.34 1.33 1.32 1.34
0.32 0.28 0.38 0.35 0.34 0.38 0.40 0.40 0.41 0.39 0.38 0.38 0.38 0.38 0.37 0.39 0.37 0.33 0.34 0.36 0.35 0.27 0.25 0.35 0.39 0.35 0.39 0.44 0.48 0.51 0.54 0.55 0.57 0.59 0.60 0.61 0.60 0.59 0.58 0.57 0.57 0.59 0.59 0.60 0.61 0.62 0.62 0.62 0.62 0.63 0.63 0.64 0.65 0.65 0.66 0.66 0.67 0.68 0.70 0.71 0.72 0.72 0.73 0.75 0.74 0.73 0.73 0.73 0.73 0.74 0.78 0.83 0.90 0.98 1.06 1.10 1.13 1.16 1.18 1.21 1.26 1.29 1.31 1.31 1.32 1.34
0.37 0.34 0.39 0.37 0.36 0.38 0.40 0.41 0.42 0.38 0.39 0.38 0.38 0.39 0.41 0.40 0.40 0.39 0.39 0.41 0.38 0.35 0.39 0.39 0.40 0.39 0.43 0.46 0.51 0.54 0.58 0.58 0.60 0.61 0.61 0.59 0.58 0.58 0.57 0.57 0.58 0.59 0.59 0.59 0.60 0.61 0.62 0.63 0.63 0.62 0.63 0.63 0.63 0.64 0.64 0.65 0.65 0.66 0.67 0.68 0.70 0.71 0.73 0.74 0.73 0.72 0.72 0.71 0.72 0.74 0.76 0.79 0.82 0.89 0.97 1.06 1.11 1.14 1.18 1.21 1.23 1.27 1.28 1.28 1.30 1.30
0.37 0.38 0.42 0.39 0.34 0.36 0.40 0.42 0.42 0.41 0.39 0.36 0.40 0.41 0.41 0.41 0.40 0.41 0.42 0.43 0.43 0.41 0.42 0.41 0.39 0.38 0.48 0.55 0.54 0.58 0.59 0.60 0.60 0.58 0.57 0.59 0.58 0.58 0.58 0.57 0.59 0.59 0.60 0.60 0.61 0.61 0.63 0.63 0.63 0.62 0.61 0.62 0.62 0.63 0.64 0.65 0.65 0.66 0.66 0.67 0.69 0.70 0.72 0.72 0.71 0.71 0.71 0.70 0.72 0.73 0.74 0.75 0.77 0.81 0.86 0.95 1.06 1.16 1.19 1.20 1.22 1.24 1.27 1.27 1.27 1.26
0.42 0.41 0.46 0.41 0.33 0.34 0.41 0.41 0.41 0.42 0.40 0.37 0.37 0.39 0.39 0.38 0.34 0.38 0.37 0.44 0.40 0.37 0.40 0.40 0.36 0.36 0.47 0.55 0.57 0.58 0.58 0.57 0.56 0.57 0.58 0.58 0.60 0.58 0.57 0.58 0.57 0.57 0.58 0.60 0.61 0.62 0.62 0.62 0.61 0.61 0.60 0.61 0.62 0.63 0.63 0.63 0.64 0.65 0.64 0.66 0.67 0.70 0.72 0.71 0.70 0.69 0.69 0.70 0.71 0.72 0.71 0.71 0.73 0.75 0.80 0.87 0.94 1.06 1.17 1.20 1.19 1.20 1.25 1.26 1.23 1.23
0.38 0.37 0.36 0.37 0.32 0.34 0.42 0.44 0.41 0.40 0.36 0.31 0.33 0.38 0.41 0.41 0.42 0.43 0.44 0.46 0.45 0.46 0.39 0.35 0.36 0.47 0.50 0.54 0.52 0.54 0.56 0.56 0.57 0.58 0.58 0.59 0.60 0.59 0.58 0.58 0.58 0.58 0.60 0.60 0.61 0.61 0.61 0.60 0.61 0.61 0.61 0.61 0.61 0.62 0.63 0.63 0.63 0.62 0.64 0.65 0.67 0.69 0.70 0.70 0.69 0.69 0.69 0.69 0.70 0.70 0.71 0.70 0.70 0.72 0.74 0.80 0.89 0.99 1.08 1.16 1.19 1.19 1.20 1.22 1.25 1.25
0.35 0.33 0.32 0.36 0.28 0.33 0.39 0.41 0.41 0.34 0.25 0.27 0.45 0.50 0.47 0.42 0.43 0.39 0.38 0.43 0.47 0.48 0.45 0.49 0.49 0.52 0.53 0.53 0.52 0.53 0.54 0.56 0.58 0.60 0.62 0.60 0.59 0.61 0.61 0.61 0.60 0.60 0.60 0.61 0.61 0.61 0.60 0.61 0.60 0.60 0.60 0.61 0.61 0.62 0.63 0.63 0.63 0.63 0.64 0.65 0.65 0.66 0.67 0.68 0.68 0.69 0.69 0.69 0.70 0.71 0.72 0.71 0.70 0.70 0.73 0.78 0.85 0.93 1.03 1.11 1.17 1.22 1.26 1.27 1.23 1.21
0.31 0.30 0.29 0.33 0.28 0.29 0.36 0.36 0.30 0.23 0.25 0.43 0.53 0.55 0.54 0.51 0.49 0.45 0.45 0.47 0.49 0.51 0.51 0.50 0.50 0.51 0.53 0.55 0.56 0.57 0.58 0.60 0.61 0.60 0.60 0.63 0.63 0.62 0.61 0.60 0.60 0.60 0.60 0.60 0.61 0.61 0.61 0.61 0.60 0.60 0.60 0.60 0.60 0.60 0.60 0.61 0.62 0.62 0.61 0.62 0.61 0.63 0.64 0.65 0.67 0.68 0.68 0.68 0.70 0.71 0.72 0.72 0.72 0.71 0.72 0.76 0.82 0.88 0.94 1.02 1.12 1.19 1.24 1.23 1.24 1.20
0.27 0.27 0.29 0.29 0.31 0.33 0.29 0.28 0.18 0.21 0.37 0.46 0.49 0.52 0.56 0.54 0.52 0.49 0.44 0.48 0.51 0.51 0.52 0.50 0.51 0.54 0.55 0.55 0.57 0.58 0.58 0.59 0.61 0.61 0.62 0.63 0.64 0.63 0.60 0.59 0.60 0.60 0.59 0.61 0.61 0.61 0.61 0.61 0.60 0.60 0.60 0.60 0.59 0.59 0.59 0.58 0.60 0.59 0.58 0.59 0.57 0.58 0.59 0.61 0.63 0.65 0.67 0.67 0.69 0.71 0.72 0.73 0.73 0.73 0.73 0.74 0.79 0.84 0.89 0.95 1.01 1.05 1.15 1.22 1.21 1.23
0.32 0.31 0.30 0.26 0.33 0.23 0.25 0.25 0.24 0.34 0.34 0.38 0.40 0.43 0.48 0.43 0.44 0.42 0.34 0.41 0.50 0.52 0.52 0.51 0.52 0.53 0.54 0.55 0.56 0.56 0.56 0.55 0.53 0.55 0.61 0.61 0.62 0.64 0.63 0.62 0.61 0.61 0.61 0.61 0.62 0.62 0.63 0.63 0.61 0.61 0.61 0.59 0.59 0.59 0.59 0.59 0.59 0.58 0.57 0.57 0.56 0.56 0.55 0.56 0.57 0.61 0.64 0.66 0.68 0.70 0.72 0.74 0.74 0.73 0.73 0.73 0.75 0.80 0.85 0.90 0.94 1.00 1.06 1.08 1.14 1.17
0.34 0.25 0.30 0.25 0.28 0.31 0.24 0.22 0.23 0.22 0.18 0.27 0.40 0.49 0.54 0.54 0.53 0.51 0.43 0.38 0.50 0.53 0.54 0.52 0.50 0.52 0.52 0.53 0.53 0.54 0.54 0.48 0.44 0.47 0.56 0.61 0.63 0.62 0.64 0.64 0.64 0.63 0.63 0.63 0.63 0.63 0.63 0.64 0.64 0.64 0.63 0.61 0.60 0.60 0.60 0.60 0.59 0.58 0.57 0.56 0.56 0.55 0.54 0.52 0.52 0.56 0.61 0.65 0.67 0.70 0.72 0.74 0.75 0.74 0.74 0.73 0.72 0.76 0.82 0.88 0.92 0.97 1.01 1.04 1.08 1.10
0.32 0.31 0.30 0.23 0.25 0.27 0.24 0.20 0.19 0.17 0.22 0.35 0.40 0.46 0.52 0.54 0.53 0.50 0.39 0.32 0.47 0.51 0.53 0.52 0.50 0.51 0.51 0.50 0.50 0.51 0.47 0.40 0.41 0.47 0.55 0.59 0.61 0.62 0.60 0.61 0.61 0.62 0.62 0.63 0.63 0.63 0.64 0.64 0.65 0.64 0.64 0.63 0.60 0.60 0.60 0.60 0.59 0.58 0.56 0.56 0.56 0.56 0.55 0.53 0.52 0.52 0.56 0.62 0.66 0.69 0.72 0.74 0.75 0.75 0.75 0.73 0.73 0.74 0.78 0.83 0.89 0.95 0.98 0.99 1.02 1.06
0.27 0.26 0.27 0.22 0.22 0.24 0.23 0.20 0.18 0.23 0.23 0.35 0.42 0.46 0.50 0.54 0.50 0.43 0.23 0.24 0.43 0.51 0.52 0.51 0.50 0.50 0.50 0.51 0.52 0.51 0.46 0.40 0.42 0.48 0.57 0.59 0.60 0.61 0.61 0.60 0.60 0.60 0.61 0.62 0.63 0.64 0.63 0.64 0.63 0.62 0.62 0.60 0.59 0.61 0.61 0.60 0.58 0.57 0.57 0.57 0.57 0.56 0.56 0.55 0.54 0.53 0.55 0.59 0.63 0.67 0.70 0.74 0.74 0.75 0.76 0.76 0.75 0.75 0.76 0.81 0.86 0.90 0.94 0.98 1.01 1.02
0.22 0.23 0.23 0.19 0.21 0.23 0.22 0.21 0.24 0.26 0.34 0.40 0.42 0.47 0.49 0.53 0.44 0.26 0.19 0.31 0.46 0.50 0.52 0.52 0.50 0.50 0.51 0.51 0.52 0.46 0.50 0.51 0.53 0.56 0.58 0.59 0.58 0.58 0.60 0.61 0.61 0.61 0.60 0.61 0.62 0.62 0.61 0.60 0.60 0.59 0.59 0.59 0.59 0.59 0.59 0.59 0.57 0.57 0.57 0.57 0.56 0.55 0.57 0.58 0.57 0.56 0.55 0.57 0.60 0.62 0.65 0.70 0.74 0.75 0.77 0.77 0.77 0.77 0.77 0.78 0.80 0.85 0.89 0.91 0.96 1.00
0.21 0.22 0.23 0.23 0.20 0.19 0.22 0.19 0.19 0.25 0.35 0.42 0.45 0.47 0.51 0.40 0.23 0.22 0.39 0.49 0.50 0.50 0.54 0.53 0.51 0.52 0.53 0.53 0.53 0.52 0.54 0.56 0.56 0.57 0.57 0.58 0.58 0.59 0.61 0.61 0.61 0.60 0.60 0.60 0.59 0.59 0.58 0.57 0.57 0.57 0.57 0.57 0.57 0.57 0.57 0.57 0.55 0.55 0.56 0.55 0.55 0.56 0.58 0.59 0.58 0.57 0.55 0.55 0.58 0.61 0.63 0.65 0.70 0.75 0.77 0.79 0.78 0.76 0.76 0.79 0.80 0.82 0.85 0.88 0.90 0.93
0.22 0.18 0.18 0.17 0.21 0.22 0.21 0.18 0.16 0.13 0.29 0.42 0.44 0.42 0.47 0.31 0.33 0.44 0.47 0.50 0.53 0.53 0.53 0.54 0.53 0.53 0.55 0.53 0.55 0.54 0.54 0.54 0.55 0.56 0.57 0.58 0.58 0.58 0.58 0.58 0.57 0.57 0.57 0.58 0.57 0.58 0.58 0.56 0.56 0.55 0.55 0.56 0.56 0.57 0.56 0.55 0.53 0.54 0.55 0.54 0.56 0.58 0.58 0.58 0.58 0.57 0.55 0.54 0.54 0.58 0.62 0.64 0.66 0.69 0.74 0.77 0.79 0.78 0.77 0.78 0.79 0.80 0.82 0.84 0.87 0.88
0.31 0.19 0.19 0.21 0.24 0.16 0.16 0.13 0.15 0.24 0.34 0.43 0.40 0.31 0.40 0.43 0.47 0.49 0.48 0.46 0.52 0.54 0.52 0.53 0.53 0.55 0.56 0.55 0.54 0.53 0.53 0.53 0.55 0.57 0.57 0.57 0.57 0.57 0.57 0.57 0.57 0.56 0.56 0.57 0.57 0.56 0.55 0.53 0.52 0.51 0.51 0.52 0.54 0.54 0.54 0.53 0.51 0.52 0.53 0.54 0.58 0.59 0.58 0.57 0.56 0.56 0.54 0.53 0.53 0.55 0.59 0.63 0.65 0.68 0.69 0.72 0.75 0.77 0.77 0.78 0.78 0.78 0.80 0.81 0.84 0.87
0.33 0.25 0.27 0.21 0.29 0.22 0.20 0.24 0.31 0.36 0.39 0.44 0.45 0.44 0.47 0.50 0.50 0.50 0.49 0.48 0.48 0.50 0.55 0.52 0.53 0.55 0.56 0.55 0.53 0.52 0.52 0.54 0.54 0.55 0.52 0.53 0.53 0.54 0.53 0.53 0.53 0.53 0.53 0.52 0.50 0.51 0.49 0.47 0.46 0.45 0.45 0.46 0.48 0.49 0.50 0.49 0.47 0.47 0.48 0.52 0.55 0.55 0.56 0.56 0.56 0.54 0.53 0.53 0.53 0.53 0.55 0.58 0.62 0.65 0.68 0.69 0.71 0.71 0.74 0.76 0.78 0.77 0.80 0.81 0.82 0.84
0.39 0.38 0.39 0.33 0.30 0.37 0.38 0.39 0.42 0.41 0.42 0.43 0.47 0.49 0.48 0.49 0.51 0.51 0.49 0.47 0.50 0.52 0.55 0.53 0.54 0.55 0.55 0.55 0.51 0.53 0.53 0.54 0.53 0.52 0.51 0.51 0.51 0.51 0.51 0.50 0.49 0.48 0.45 0.41 0.39 0.40 0.41 0.42 0.42 0.41 0.41 0.42 0.44 0.46 0.47 0.47 0.47 0.44 0.46 0.49 0.50 0.50 0.51 0.51 0.52 0.53 0.53 0.52 0.52 0.52 0.53 0.54 0.57 0.60 0.63 0.66 0.69 0.70 0.71 0.72 0.74 0.76 0.78 0.80 0.81 0.83
0.39 0.42 0.38 0.31 0.36 0.30 0.25 0.38 0.38 0.40 0.43 0.43 0.44 0.48 0.50 0.50 0.50 0.51 0.50 0.50 0.52 0.54 0.55 0.56 0.57 0.56 0.55 0.55 0.54 0.53 0.53 0.53 0.50 0.50 0.50 0.49 0.49 0.48 0.46 0.44 0.42 0.40 0.36 0.32 0.32 0.34 0.36 0.37 0.36 0.37 0.37 0.37 0.40 0.41 0.43 0.44 0.45 0.46 0.47 0.46 0.47 0.47 0.48 0.47 0.47 0.48 0.49 0.51 0.52 0.51 0.51 0.50 0.52 0.54 0.57 0.60 0.64 0.66 0.69 0.71 0.72 0.72 0.75 0.78 0.79 0.80
0.31 0.44 0.35 0.35 0.34 0.30 0.31 0.38 0.41 0.44 0.45 0.46 0.46 0.45 0.45 0.48 0.50 0.51 0.53 0.55 0.55 0.55 0.55 0.55 0.55 0.53 0.54 0.51 0.51 0.49 0.46 0.47 0.45 0.44 0.44 0.42 0.41 0.40 0.38 0.36 0.34 0.30 0.28 0.27 0.27 0.27 0.28 0.29 0.29 0.30 0.32 0.33 0.35 0.37 0.39 0.41 0.41 0.43 0.45 0.46 0.46 0.46 0.45 0.45 0.45 0.45 0.46 0.48 0.50 0.50 0.50 0.49 0.49 0.49 0.50 0.52 0.54 0.56 0.60 0.65 0.69 0.69 0.70 0.73 0.75 0.76
0.39 0.41 0.30 0.36 0.32 0.35 0.40 0.41 0.42 0.43 0.44 0.45 0.47 0.48 0.49 0.49 0.49 0.50 0.53 0.53 0.53 0.51 0.51 0.51 0.52 0.51 0.50 0.47 0.47 0.43 0.41 0.41 0.41 0.39 0.36 0.35 0.34 0.32 0.30 0.29 0.27 0.25 0.22 0.21 0.20 0.20 0.20 0.21 0.21 0.23 0.24 0.26 0.29 0.30 0.33 0.35 0.38 0.40 0.40 0.41 0.42 0.43 0.43 0.42 0.43 0.43 0.43 0.45 0.47 0.48 0.49 0.48 0.48 0.49 0.48 0.49 0.50 0.52 0.53 0.54 0.57 0.62 0.65 0.70 0.73 0.75
0.37 0.32 0.38 0.35 0.29 0.28 0.29 0.34 0.40 0.32 0.32 0.40 0.45 0.49 0.51 0.53 0.52 0.50 0.49 0.47 0.46 0.45 0.45 0.44 0.44 0.45 0.43 0.42 0.40 0.37 0.34 0.33 0.33 0.31 0.28 0.28 0.27 0.27 0.27 0.26 0.25 0.23 0.22 0.21 0.20 0.20 0.19 0.20 0.20 0.20 0.20 0.22 0.25 0.27 0.28 0.30 0.32 0.34 0.36 0.37 0.38 0.38 0.38 0.39 0.40 0.40 0.40 0.41 0.42 0.44 0.46 0.46 0.46 0.47 0.47 0.48 0.48 0.48 0.50 0.54 0.56 0.57 0.58 0.61 0.66 0.69
0.34 0.35 0.36 0.30 0.28 0.28 0.37 0.43 0.45 0.44 0.44 0.45 0.48 0.52 0.53 0.52 0.48 0.42 0.40 0.40 0.40 0.41 0.40 0.37 0.35 0.35 0.35 0.36 0.37 0.33 0.30 0.28 0.27 0.28 0.26 0.26 0.26 0.26 0.26 0.24 0.23 0.22 0.21 0.21 0.19 0.18 0.18 0.19 0.19 0.19 0.19 0.21 0.24 0.26 0.27 0.28 0.29 0.31 0.32 0.33 0.33 0.35 0.35 0.35 0.35 0.36 0.37 0.39 0.39 0.40 0.42 0.44 0.45 0.45 0.46 0.47 0.47 0.47 0.46 0.47 0.50 0.53 0.56 0.57 0.60 0.63
Wind_Speed
24 23 23 24 23 23 23 22 21 20 19 17 16 15 16 16 16 18 17 17 16 14 14 13 12 11 11 11 11 9 6 5 7 8 7 8 10 11 11 11 11 12 13 12 12 12 12 13 12 12 11 11 11 11 12 13 14 14 14 15 14 15 15 16 16 16 16 16 17 17 17 16 15 15 15 16 16 15 15 16 18 19 20 20 19 19
24 24 25 25 24 23 22 22 20 19 19 17 17 16 15 16 17 18 17 16 15 14 13 12 11 11 12 12 12 9 7 7 8 7 7 7 8 9 10 10 11 11 12 12 12 12 13 13 13 12 12 12 12 12 12 13 13 14 14 15 15 15 16 16 17 17 18 18 18 17 18 17 16 16 16 16 17 16 16 17 18 19 20 20 20 20
24 24 25 25 23 21 19 20 20 20 20 18 18 17 16 16 17 17 16 15 13 13 13 11 11 13 14 14 12 9 9 8 7 6 6 6 6 7 9 10 11 12 13 13 13 13 13 13 13 13 13 13 13 13 13 13 13 13 14 14 15 16 16 17 18 18 18 18 18 18 18 18 17 17 17 17 17 17 17 18 18 19 20 20 20 21
24 25 25 24 22 21 19 20 20 20 20 19 19 18 17 16 16 16 15 14 12 12 13 12 13 13 14 13 11 9 9 7 5 5 5 5 5 7 8 10 11 12 13 14 14 13 13 13 13 14 14 14 14 14 14 13 13 13 14 15 16 16 17 18 18 18 19 19 19 19 19 19 18 17 17 17 18 18 18 18 19 20 21 21 20 21
24 23 23 22 22 22 21 21 21 21 21 21 20 19 18 17 17 16 15 13 12 11 13 14 13 13 13 12 11 10 8 5 5 5 4 5 5 6 7 8 9 10 12 13 13 13 13 13 13 13 13 14 14 15 15 14 14 14 14 15 16 17 17 17 18 18 19 19 19 19 19 19 19 18 18 18 18 19 18 18 19 20 21 21 21 22
25 22 20 21 22 23 22 22 22 22 21 21 21 21 20 18 17 16 14 12 11 12 14 15 14 14 13 11 11 11 8 6 6 5 4 5 5 5 6 7 7 8 10 11 12 12 12 13 13 14 13 13 14 14 15 15 16 16 15 16 17 17 17 17 18 19 19 20 20 20 20 20 20 20 19 19 19 19 19 19 19 20 21 21 21 22
23 23 21 20 22 23 22 22 22 21 21 21 22 22 21 19 17 16 14 13 12 14 15 15 15 15 14 11 11 11 7 6 6 5 5 5 5 5 5 5 6 6 7 8 9 10 11 12 12 13 13 13 13 14 16 16 17 17 17 17 17 17 18 18 18 19 19 20 20 21 21 21 21 21 20 20 20 20 20 20 20 21 21 21 21 22
23 23 21 20 20 21 22 22 22 21 20 21 22 21 21 19 18 17 16 15 15 15 14 14 15 15 13 12 12 11 8 7 7 6 5 5 5 4 5 5 5 6 6 7 8 9 10 11 11 12 12 13 14 15 16 17 18 18 18 18 18 18 18 18 18 18 18 20 21 21 22 21 21 21 20 21 21 21 21 21 21 22 22 21 21 22
21 22 22 21 19 20 22 22 22 21 20 21 21 20 20 19 18 17 16 15 15 14 15 15 14 14 14 14 13 12 10 8 8 7 6 5 5 5 5 6 6 6 6 7 7 8 9 10 11 11 12 13 14 14 16 17 18 18 19 19 19 18 17 18 19 20 20 21 22 22 22 22 23 23 22 21 21 22 21 21 22 22 22 22 22 22
19 21 22 21 19 20 21 20 21 21 19 19 19 18 17 16 16 16 16 16 14 14 16 16 15 14 14 14 13 12 12 10 9 8 7 6 5 5 6 7 7 7 7 7 8 8 9 10 11 12 12 13 14 15 16 17 17 17 18 19 18 17 17 18 20 22 22 22 22 22 22 24 24 24 23 22 22 22 22 22 22 21 21 21 21 22
18 19 20 20 20 19 19 18 20 21 19 18 18 16 15 15 15 15 16 16 14 15 17 17 16 15 14 14 13 13 12 11 10 9 8 7 6 7 7 8 9 9 9 9 9 9 10 11 12 12 13 14 15 16 17 18 17 18 18 18 18 18 19 20 21 23 23 23 23 23 24 25 25 24 24 24 22 22 22 22 22 21 21 21 22 22
19 19 20 20 19 18 17 16 18 18 17 17 17 17 16 15 15 14 15 16 15 16 17 16 15 14 14 14 13 13 12 11 10 9 8 7 8 8 8 9 9 10 10 10 10 11 12 12 12 13 14 14 15 16 17 18 19 19 19 19 20 20 21 22 23 24 24 24 24 24 24 24 24 24 24 24 24 23 22 22 22 21 21 21 22 23
21 21 19 18 19 19 17 15 16 17 17 18 18 18 17 15 14 15 15 16 16 16 16 16 15 13 13 14 13 12 12 11 10 9 8 9 9 9 9 10 10 11 11 11 11 11 12 12 13 14 14 15 15 16 18 19 19 20 20 21 21 22 23 24 25 25 25 24 24 24 24 23 24 24 24 24 24 23 22 22 22 21 21 21 22 22
20 20 19 18 19 20 19 17 17 18 20 20 19 19 18 15 14 15 15 15 16 16 15 15 14 14 14 14 14 13 12 11 9 9 9 9 10 10 11 11 11 11 11 11 11 11 12 13 13 14 15 15 16 17 18 19 20 20 20 21 22 23 24 25 25 25 24 24 24 24 24 24 24 25 25 24 23 23 22 22 22 22 21 21 22 22
18 18 20 20 19 19 20 19 18 19 20 20 19 18 18 17 15 15 16 16 16 16 15 14 13 14 15 14 13 14 12 11 10 10 9 9 10 11 11 11 12 12 11 11 12 12 12 13 14 14 15 16 16 17 18 19 20 20 20 21 22 23 24 25 25 24 24 23 24 24 24 23 23 24 25 24 24 24 23 22 22 22 21 21 21 21
18 18 19 19 18 18 18 17 17 18 18 18 18 17 18 18 16 14 15 16 16 15 14 14 14 15 15 13 13 13 12 12 11 10 9 9 10 10 11 12 12 11 11 12 12 13 13 14 14 15 15 16 17 17 18 18 19 19 19 20 20 21 22 23 23 23 23 23 23 23 24 23 23 23 24 25 25 25 24 23 22 22 21 20 20 20
18 17 17 17 17 17 17 17 17 17 18 18 18 19 18 17 15 15 14 14 14 14 14 15 16 15 15 14 14 13 12 12 11 10 9 9 10 10 11 12 12 12 12 12 12 13 14 14 15 15 16 16 17 17 17 17 17 18 18 18 19 19 20 20 21 20 21 22 23 24 24 25 25 24 24 25 25 25 25 23 22 21 21 20 20 20
18 17 16 16 17 17 16 16 15 15 17 17 18 19 17 14 14 15 14 13 13 14 15 16 16 17 16 15 15 14 12 11 10 10 10 9 10 10 11 12 12 13 13 13 13 13 14 15 15 15 15 15 16 16 16 16 16 16 16 16 16 17 17 18 18 18 19 20 22 22 23 24 25 24 24 24 24 24 24 23 22 21 21 20 20 20
17 16 15 16 17 17 15 15 15 15 15 16 18 18 16 15 16 15 15 14 14 14 15 15 16 17 17 16 16 16 13 11 10 10 10 10 10 10 11 12 13 13 13 13 13 14 14 15 16 16 15 16 16 15 15 15 15 15 15 15 15 15 16 16 16 16 17 18 19 19 20 21 21 22 22 23 23 22 22 22 21 21 21 20 20 20
17 16 16 16 16 17 15 15 17 17 15 14 15 16 16 16 16 16 16 15 15 15 15 15 16 17 17 16 16 15 14 12 11 11 11 10 10 11 12 12 13 13 12 12 13 13 14 14 15 15 15 15 15 15 15 14 14 15 15 15 15 15 15 15 15 16 16 16 16 17 17 18 18 19 19 20 21 21 21 20 20 21 20 20 20 20
16 15 15 15 15 16 16 17 18 18 17 16 16 17 16 15 15 15 15 14 14 14 14 15 16 17 17 16 15 14 13 13 13 12 11 10 10 11 12 12 13 12 12 12 12 12 13 13 14 14 14 14 14 13 14 14 14 14 15 15 15 15 16 16 16 16 15 15 15 16 16 16 16 16 16 18 19 20 20 20 20 20 20 20 20 20
17 16 15 15 15 15 16 17 17 18 18 17 17 18 17 16 15 14 14 14 14 14 15 15 14 15 16 16 15 14 13 13 13 12 12 10 10 11 12 12 12 12 12 12 12 12 12 12 13 13 13 13 12 13 13 13 14 14 14 15 15 16 16 16 16 16 16 15 15 15 15 14 14 14 15 16 18 19 20 20 20 20 20 20 20 21
17 16 14 14 15 16 16 16 16 16 16 16 15 16 16 16 16 15 15 15 14 13 14 13 12 14 14 14 14 14 13 13 12 12 11 10 10 10 11 11 11 12 11 12 12 12 12 12 12 12 12 12 12 12 13 13 13 13 14 14 15 15 16 16 16 16 16 16 16 15 15 14 13 13 14 16 18 20 20 20 20 19 19 20 21 21
17 16 15 14 14 15 15 14 14 14 14 14 14 15 15 14 15 15 16 15 14 13 13 12 12 14 13 13 13 12 12 12 12 11 11 9 9 10 10 11 11 11 11 12 12 11 11 11 11 11 11 11 11 12 13 13 13 13 14 15 15 16 16 16 16 16 16 16 16 15 15 15 14 14 14 15 18 20 20 20 20 19 19 20 21 21
18 16 16 15 13 13 13 13 13 13 14 14 14 14 14 13 13 14 14 13 13 14 14 13 13 14 14 13 12 12 12 12 11 11 10 9 9 9 9 9 10 10 11 11 11 11 11 11 11 10 10 11 12 12 13 13 13 14 14 15 15 16 16 16 16 16 16 16 16 15 15 16 16 16 15 15 17 18 19 20 20 20 20 20 20 21
17 16 17 16 15 15 15 14 15 14 13 13 13 12 12 12 13 13 14 13 13 14 13 13 13 13 14 13 12 12 12 11 11 11 10 9 9 10 9 9 10 10 10 11 10 10 10 10 10 10 11 11 12 12 13 13 14 14 14 15 15 15 16 16 16 17 17 17 16 16 16 16 16 17 16 16 15 16 17 18 19 20 21 20 20 21
16 16 16 15 15 16 16 15 15 14 13 13 13 12 11 12 13 13 13 13 14 14 13 13 14 14 14 14 13 13 12 11 11 11 10 9 10 10 10 10 10 10 10 11 11 10 10 10 11 11 11 11 12 12 13 13 14 14 14 15 15 15 15 15 16 16 16 17 17 16 16 16 17 17 17 17 16 16 17 17 17 19 20 21 21 21
15 14 13 13 12 13 14 13 12 12 12 12 12 11 11 11 12 11 12 13 14 13 13 14 14 14 15 15 14 13 13 12 12 10 10 10 11 11 11 11 11 11 11 11 11 11 11 11 11 11 11 11 12 12 13 13 13 14 14 15 15 15 15 15 16 16 16 17 17 17 17 17 17 17 17 17 17 18 18 17 17 18 19 20 21 21
14 13 12 12 11 11 11 12 11 11 11 11 11 11 11 10 11 11 12 12 13 14 14 15 14 14 14 14 14 14 13 12 11 11 11 11 11 11 11 11 11 11 11 11 11 11 11 11 11 11 12 12 12 13 13 14 14 14 15 15 15 15 15 15 16 16 16 17 17 17 17 17 17 17 18 18 18 19 19 19 18 18 18 20 21 21
13 12 11 12 11 10 10 11 11 11 11 10 9 10 10 10 10 11 12 12 12 12 13 13 12 13 14 14 14 13 13 12 11 11 11 11 11 10 10 10 11 11 11 12 12 12 11 11 12 12 12 13 13 13 14 14 14 15 15 15 16 16 16 16 16 17 17 17 17 18 18 17 17 17 18 18 19 20 20 19 19 18 18 20 21 22
12 13 13 12 11 9 10 10 10 10 11 10 9 10 10 10 10 11 12 12 12 12 12 11 12 13 14 14 13 13 13 12 12 12 11 11 10 10 9 10 10 10 11 11 12 11 11 12 12 12 13 13 14 14 14 15 15 15 15 15 16 16 16 16 16 17 18 18 18 18 18 18 18 17 18 19 20 20 20 20 19 19 18 19 20 21
12 13 13 13 12 11 11 11 10 10 10 10 9 10 10 11 12 12 13 13 13 13 13 13 14 15 15 14 13 13 13 12 12 12 11 11 10 9 9 10 9 10 10 11 11 10 11 11 12 12 13 14 14 15 15 15 15 15 16 16 16 16 16 16 17 17 18 19 19 19 19 18 18 18 18 18 20 21 21 21 21 20 19 19 20 21
11 12 13 13 12 13 13 13 12 11 11 11 11 11 11 11 12 11 12 12 13 14 14 14 15 15 15 15 14 14 13 12 12 12 12 12 12 11 11 10 10 10 11 11 11 11 11 11 12 12 13 14 14 14 15 15 15 15 16 16 16 16 16 17 17 18 18 19 20 20 20 19 19 19 19 18 19 20 21 22 23 23 22 21 21 21
10 11 13 13 12 14 15 13 12 13 13 13 14 13 12 11 11 11 11 11 12 13 13 13 13 14 14 14 14 14 13 13 13 13 13 13 13 12 11 11 11 11 12 12 11 11 12 12 12 13 13 14 14 14 14 15 15 15 16 16 16 16 16 17 17 18 19 19 19 20 20 20 19 19 19 18 18 18 20 22 24 25 24 23 23 23
11 11 12 12 12 14 14 12 12 14 14 14 14 13 12 11 10 10 10 10 11 11 11 11 12 12 12 12 12 12 12 12 12 12 12 12 12 12 11 11 12 12 12 12 12 12 13 13 13 14 14 14 15 15 15 15 15 15 15 15 15 16 16 17 17 18 18 19 19 19 20 20 19 19 19 18 17 17 17 19 22 25 25 25 25 25
11 12 12 11 12 13 13 12 13 14 14 13 13 13 12 12 12 11 10 10 11 12 12 11 12 12 11 11 11 11 11 10 10 10 11 11 12 12 11 12 12 12 12 13 13 13 13 13 13 14 14 15 15 15 15 15 15 15 15 15 16 16 16 16 17 18 18 19 19 19 19 19 19 19 18 17 16 16 16 17 19 21 23 24 25 25
10 11 11 10 11 12 12 11 11 12 13 14 14 13 13 12 13 13 12 12 13 13 12 12 12 12 12 11 11 11 10 10 9 10 11 11 12 12 12 11 11 11 12 12 13 13 13 14 14 14 14 15 15 15 15 15 15 15 15 16 16 16 16 17 17 18 18 18 18 18 18 18 18 18 18 17 16 15 15 16 17 18 21 23 24 25
8 10 11 11 11 12 11 10 11 12 13 14 14 13 13 13 14 13 13 13 13 13 13 13 12 13 12 12 12 12 12 11 12 12 12 12 12 12 12 11 11 12 12 13 13 13 13 14 14 14 14 15 15 15 15 15 15 15 15 16 17 17 17 17 18 18 19 19 18 18 18 18 17 17 17 17 16 15 15 15 15 16 18 20 22 24
6 8 9 10 11 12 12 11 11 12 13 13 13 13 13 13 14 14 13 14 14 14 14 14 13 14 14 14 14 13 13 13 13 13 13 13 13 13 12 12 12 12 12 13 12 12 13 13 14 14 15 15 16 16 16 16 16 15 16 16 17 17 18 18 19 19 19 19 18 18 18 17 17 17 16 17 16 15 14 14 14 14 15 18 20 22
7 8 9 9 10 12 12 11 11 12 12 12 13 13 13 13 13 13 13 14 14 14 15 14 14 15 14 14 13 13 13 13 13 13 13 13 13 13 13 13 13 13 13 13 12 12 13 13 13 14 15 15 16 17 17 17 16 16 17 17 18 18 18 19 19 19 18 18 18 18 18 17 17 16 16 16 15 14 13 12 12 13 13 15 18 19
9 9 9 9 10 11 11 11 11 11 12 12 12 13 13 12 12 13 13 13 12 14 15 15 14 14 14 13 13 12 12 12 11 11 12 12 12 12 12 12 12 12 12 12 12 13 13 13 14 14 15 15 16 16 17 17 17 17 18 18 18 19 19 18 18 18 18 17 17 17 17 17 16 16 15 14 14 14 13 12 10 10 11 13 15 16
9 9 9 9 9 10 11 10 10 11 11 11 12 12 12 12 12 13 12 11 11 12 13 14 14 13 12 11 11 10 10 10 10 10 10 10 10 10 10 10 10 10 11 11 12 12 13 14 14 14 15 15 16 16 17 17 17 18 18 18 18 19 18 18 18 18 17 17 16 16 16 16 16 15 15 14 13 13 12 12 10 9 9 12 13 14
10 9 10 10 10 10 10 10 10 11 11 11 11 12 12 12 12 11 10 10 11 11 11 12 12 12 11 10 9 10 10 9 9 9 9 9 9 9 9 8 9 10 11 12 12 13 14 14 15 15 15 15 16 16 17 17 17 17 17 18 18 18 17 17 17 17 17 16 16 15 15 16 15 15 14 14 13 12 12 11 11 9 7 8 11 14
10 10 11 11 11 11 11 11 11 11 11 11 12 12 11 11 11 11 9 9 10 10 11 11 11 11 11 10 10 10 10 9 9 8 8 8 8 8 8 8 9 10 12 13 14 14 14 15 15 15 15 15 15 16 16 16 16 17 17 17 17 17 16 16 16 16 15 15 14 14 14 15 15 14 14 13 13 12 11 11 10 9 8 6 7 11
10 10 10 11 11 11 10 11 11 10 9 10 11 10 10 10 11 10 9 9 9 10 10 10 10 10 10 10 10 9 9 8 8 7 7 7 6 7 8 9 10 11 13 14 14 14 14 14 15 15 15 15 15 15 15 15 15 16 16 16 16 16 16 16 16 15 15 14 14 14 14 14 14 14 14 13 12 11 11 10 10 9 8 6 6 7
10 10 10 10 10 10 9 9 9 9 8 8 9 9 9 9 9 9 8 8 8 9 9 9 9 9 9 9 8 8 7 7 6 6 5 5 5 6 8 9 10 11 12 12 13 13 13 13 14 15 15 15 15 15 15 15 15 15 15 15 15 16 16 16 16 16 15 14 14 14 14 13 13 13 13 13 12 11 10 10 9 8 7 7 6 6
10 9 9 9 10 10 9 8 8 8 8 8 8 8 8 8 8 8 7 7 7 8 8 8 9 9 8 7 7 6 6 5 5 4 4 4 4 6 7 8 9 10 10 11 11 11 11 11 13 14 14 15 15 15 15 15 15 15 15 15 15 15 16 16 16 16 15 15 15 15 15 14 13 13 13 12 12 11 10 10 10 9 8 8 6 6
8 8 8 9 9 9 8 8 8 7 7 8 8 8 8 8 7 7 7 7 7 8 8 9 9 8 7 7 6 6 5 4 4 3 2 3 4 6 7 8 8 9 10 10 11 11 11 11 12 13 14 14 14 14 14 14 15 15 15 15 15 16 16 16 16 15 15 15 15 15 15 14 14 13 13 12 12 11 10 10 10 9 9 9 8 7
6 7 8 8 8 8 8 9 9 7 6 7 7 8 8 8 8 8 8 8 9 9 9 9 8 8 8 7 7 6 5 3 2 2 2 4 5 5 6 7 8 9 9 10 10 11 11 12 12 13 14 14 14 14 14 14 15 15 16 16 16 16 16 16 16 16 16 15 15 15 15 15 14 14 13 13 12 11 10 10 10 10 10 10 10 9
5 5 7 8 8 8 9 9 9 8 8 8 8 9 9 9 10 10 10 10 9 9 9 8 8 8 8 7 6 5 4 3 2 2 2 3 4 5 6 7 8 8 9 9 10 10 11 11 12 13 13 14 14 14 14 15 15 15 16 16 16 16 17 17 17 17 16 16 16 15 15 15 15 14 14 13 12 12 11 11 10 10 10 10 10 10
5 6 7 7 7 8 9 10 9 9 9 10 11 11 11 11 11 11 11 10 10 9 9 8 8 8 7 6 6 5 4 3 2 2 2 3 3 4 5 6 7 8 9 10 10 11 11 12 12 13 13 13 13 14 14 15 15 16 16 17 17 17 17 17 17 17 17 17 17 16 16 16 15 15 15 14 14 13 13 12 12 11 11 11 11 10
Wind_Direction
214 215 217 217 217 217 217 216 214 215 212 211 214 214 214 216 223 227 229 235 233 230 231 221 216 225 231 239 246 247 253 277 287 282 264 244 236 238 243 245 244 245 250 257 258 258 261 263 266 268 269 268 265 264 262 258 253 252 253 255 257 256 255 254 254 255 256 256 256 257 258 259 258 258 259 259 258 256 253 249 246 245 244 243 242 240
215 215 219 219 217 217 217 216 213 213 212 212 213 213 216 217 223 227 227 234 233 225 227 217 209 224 232 237 244 245 249 268 281 288 282 263 245 239 239 241 244 247 252 255 256 257 260 265 266 265 267 267 266 266 265 261 257 255 255 256 257 259 260 259 259 258 258 258 258 259 260 261 259 258 258 258 257 257 255 252 248 246 244 244 243 239
216 218 221 220 217 214 215 216 213 213 213 214 214 212 217 219 223 228 229 234 231 220 221 212 206 226 237 237 240 245 246 255 274 289 286 277 266 256 248 246 247 249 252 255 256 259 261 265 268 265 265 267 266 267 267 264 261 258 257 258 259 261 263 264 263 262 261 260 260 262 262 262 262 262 260 259 258 257 256 253 250 248 245 244 243 239
215 221 221 216 213 211 214 216 212 214 215 215 214 212 218 221 220 223 228 234 230 217 212 205 206 224 237 238 239 247 248 255 276 286 291 287 278 271 261 257 256 254 255 256 258 260 262 265 267 266 264 266 267 268 267 266 264 261 260 261 262 264 265 266 265 263 263 262 262 263 263 263 264 264 263 261 259 258 257 255 252 249 246 244 243 240
217 221 217 212 212 210 212 215 212 213 217 218 216 212 215 217 217 219 225 232 230 219 211 207 212 226 235 238 242 247 250 261 278 288 303 299 285 279 276 272 265 260 260 262 263 265 266 267 267 267 266 267 268 269 270 271 270 269 268 267 266 267 267 267 267 265 264 264 264 264 264 263 263 263 263 262 261 259 258 258 255 251 248 246 244 240
218 217 212 210 213 212 211 215 214 212 216 221 219 213 211 211 214 220 225 228 226 221 217 212 215 229 235 235 239 244 246 256 270 284 302 304 299 291 290 288 275 268 266 266 268 269 270 270 268 269 270 271 272 273 273 274 274 275 277 276 272 270 269 269 268 265 264 265 265 265 264 263 263 262 262 261 260 260 259 259 258 254 250 247 244 239
215 212 209 209 212 212 211 215 217 213 214 221 220 212 210 208 210 217 220 221 222 219 217 214 214 224 232 232 236 240 239 246 256 270 292 300 305 301 300 298 289 283 277 273 276 276 275 273 270 269 270 272 275 275 273 274 275 276 278 279 277 274 272 270 267 265 265 266 266 267 266 265 265 264 264 263 260 259 258 258 257 255 250 247 243 239
211 208 208 207 208 210 212 216 217 212 212 221 219 209 208 209 211 214 213 215 222 221 220 221 217 219 227 231 237 239 235 242 251 262 281 289 298 308 313 311 308 304 295 288 287 285 283 281 275 271 271 273 275 277 276 274 276 277 276 277 277 275 271 268 267 266 267 268 268 268 267 269 270 269 267 265 261 259 259 257 256 254 250 246 243 239
209 207 208 206 206 210 213 216 213 209 214 219 214 208 208 209 210 210 209 215 223 222 224 230 223 218 226 231 235 239 236 243 251 256 267 274 285 300 310 316 317 315 311 306 298 293 292 289 284 276 274 275 276 279 280 278 280 281 279 277 275 271 268 266 267 269 270 271 270 270 269 271 274 272 270 267 261 259 260 258 257 256 253 249 244 239
208 207 205 203 206 211 213 214 208 206 214 213 204 204 208 209 209 208 210 216 221 221 225 231 225 218 228 233 233 237 239 242 247 249 253 260 273 286 300 310 313 312 312 309 304 300 297 294 290 284 282 283 281 281 282 282 284 283 281 281 274 265 266 269 271 274 273 270 270 271 271 271 272 270 267 265 261 259 258 258 258 257 255 252 246 242
209 206 203 203 207 207 207 209 206 204 206 201 198 202 205 209 210 210 214 215 218 226 228 228 223 217 227 234 233 235 238 240 241 242 248 255 266 279 290 300 305 307 307 304 301 300 298 294 292 290 289 289 287 285 284 284 284 283 282 284 278 269 271 275 277 277 274 270 268 272 274 271 267 265 262 260 259 258 257 257 257 255 254 252 247 243
212 206 206 208 207 202 202 207 208 206 202 197 199 200 200 208 210 212 220 217 218 228 229 227 224 220 226 231 230 230 232 236 238 239 246 254 263 274 283 291 297 300 302 302 299 297 296 295 296 295 293 292 291 290 289 287 287 285 283 282 280 276 275 276 276 275 273 270 269 273 277 272 265 262 261 258 257 257 257 256 255 254 254 252 249 245
212 210 210 210 207 201 200 207 208 208 204 200 201 198 197 207 211 214 223 221 222 227 226 228 228 227 230 229 226 226 227 230 233 237 246 257 269 278 284 289 292 296 298 298 296 295 295 296 297 297 295 294 293 293 293 292 291 289 286 282 279 276 276 276 275 274 274 273 271 272 275 273 266 262 260 258 256 255 256 255 254 255 254 253 251 247
208 212 210 207 209 205 200 206 208 206 204 201 202 201 200 205 209 216 223 224 227 227 225 229 230 228 231 231 227 226 226 227 229 238 248 261 275 281 286 291 293 296 298 297 296 297 298 298 297 296 295 295 294 294 294 293 293 293 291 288 283 280 280 280 279 278 276 276 274 272 272 273 268 262 258 257 255 253 254 254 253 255 255 254 252 249
199 207 207 203 207 206 203 206 204 201 201 203 205 203 204 207 209 215 220 221 224 226 229 232 231 229 229 234 234 228 225 227 228 238 250 263 273 279 286 294 297 299 299 298 299 301 301 300 299 297 297 296 295 296 295 294 295 294 293 292 289 287 285 283 282 281 279 278 277 273 272 272 269 263 258 255 254 252 253 253 252 253 255 255 254 251
196 204 208 204 203 201 203 206 199 195 199 205 205 203 210 214 211 214 218 218 217 221 231 232 230 231 229 232 235 228 229 235 237 243 254 266 274 281 288 294 298 300 301 301 301 302 303 302 301 300 299 298 298 298 297 296 296 296 295 294 292 290 288 286 284 282 279 278 277 274 271 271 270 265 258 254 253 252 251 251 250 251 254 255 254 252
195 202 208 205 202 199 202 204 199 199 201 203 206 208 214 216 210 211 219 222 217 218 230 231 227 228 228 229 230 225 231 241 246 251 257 267 277 284 291 296 300 303 303 304 302 302 303 302 302 302 302 302 301 300 299 298 298 297 297 296 295 293 290 289 288 285 281 278 277 276 274 271 270 267 260 254 252 251 248 248 249 251 254 254 253 250
192 198 206 203 201 204 203 197 198 206 204 202 208 211 213 215 214 214 218 225 224 222 230 231 226 225 227 231 229 225 230 238 245 252 258 271 282 288 293 297 300 302 302 303 303 302 302 301 302 304 304 305 305 303 302 301 301 300 300 299 299 297 295 294 292 288 284 280 278 278 278 274 270 267 260 253 251 248 244 245 248 250 252 252 252 249
190 196 207 203 202 208 208 197 201 213 212 208 210 211 213 216 219 218 218 222 223 225 231 232 231 229 229 233 231 227 230 235 242 254 260 269 280 287 292 295 298 300 301 301 302 302 301 302 302 304 305 306 306 305 303 303 303 303 304 303 302 301 299 297 295 291 287 284 283 282 281 278 272 267 260 251 248 244 242 244 247 248 250 250 250 246
191 194 205 207 205 207 209 204 205 212 214 212 212 215 219 220 218 218 219 221 220 224 230 228 231 233 232 236 234 228 231 235 243 253 258 264 275 283 288 292 295 297 299 300 301 301 303 305 305 305 305 305 306 305 304 304 305 306 307 308 307 305 302 300 299 297 292 290 290 288 285 280 274 269 261 250 246 245 243 245 247 248 249 249 247 242
195 195 201 209 209 205 207 209 208 210 211 212 213 215 219 221 220 218 222 224 220 221 226 227 232 234 233 238 235 227 230 237 241 248 254 262 272 280 286 290 292 294 297 299 300 302 304 306 306 305 304 304 305 305 306 306 307 308 309 310 310 308 306 305 303 301 297 294 294 292 287 281 276 271 263 251 246 246 246 246 248 249 249 247 243 239
198 199 200 205 205 202 208 212 212 214 212 212 215 217 218 219 217 217 224 227 223 221 222 223 231 233 233 237 235 229 233 238 241 247 255 263 272 279 285 288 290 293 297 300 301 303 305 306 306 305 305 306 308 308 309 309 309 311 312 313 312 310 309 308 306 303 300 297 295 294 290 284 278 272 264 252 247 249 249 249 250 249 248 246 241 236
198 198 197 199 201 203 210 213 214 216 213 211 217 219 219 220 218 217 222 224 221 222 222 221 229 232 231 236 236 233 237 239 243 249 253 260 271 278 283 286 289 292 295 298 300 304 306 307 306 305 306 309 311 312 313 313 313 313 313 314 314 314 313 312 310 307 303 300 296 294 291 287 283 279 269 256 250 250 251 251 252 251 248 245 241 236
198 199 195 197 204 209 213 215 214 215 214 215 220 221 220 222 221 219 222 220 215 219 222 224 233 232 228 232 234 233 236 239 245 252 254 258 268 276 281 284 288 290 292 295 299 302 305 307 308 309 310 310 312 313 314 315 315 314 314 315 316 316 316 315 313 310 307 303 299 294 290 287 285 284 279 265 254 250 251 252 253 253 249 245 241 237
201 202 196 196 206 213 215 217 216 216 217 216 220 225 225 222 219 219 222 220 217 220 220 222 232 232 225 227 231 232 238 243 249 253 254 258 267 272 276 282 288 291 293 296 298 300 303 306 308 309 310 310 310 312 313 314 315 315 316 317 317 317 318 317 315 313 310 306 301 296 292 289 285 283 282 273 259 252 251 251 252 252 249 245 241 237
199 202 200 201 206 209 213 217 217 215 216 216 218 225 226 222 220 219 219 220 221 223 224 224 227 226 222 224 228 232 239 245 248 251 255 259 265 267 270 278 287 292 296 299 298 298 299 302 305 307 308 308 309 309 311 313 315 317 318 319 320 320 320 320 318 316 313 309 304 299 293 289 285 281 277 272 264 258 255 253 252 250 246 243 240 237
197 201 205 206 208 211 213 217 217 214 212 215 219 226 227 226 226 222 221 225 222 222 231 234 225 218 219 223 226 232 238 241 245 253 258 260 264 268 270 276 283 288 293 297 297 297 298 299 302 305 306 307 308 309 310 312 315 317 319 321 322 321 322 322 322 321 318 315 310 304 297 289 283 279 275 270 266 262 258 256 254 250 245 242 240 236
196 201 208 207 208 212 212 211 212 211 212 214 218 224 228 228 228 225 226 230 224 223 234 235 224 219 222 224 226 231 236 242 248 256 259 261 266 270 273 277 283 287 289 292 295 297 297 297 299 302 304 306 308 309 310 312 314 317 318 319 320 321 321 322 322 323 322 319 316 312 305 294 284 278 274 270 265 262 259 257 255 252 247 243 240 236
194 201 208 204 201 207 211 208 204 203 208 212 215 222 229 230 228 226 229 234 233 232 233 226 221 224 227 227 230 234 239 246 252 255 259 264 269 273 276 281 285 287 287 288 290 293 294 295 297 299 302 304 307 309 310 311 313 315 317 318 319 320 321 321 321 322 322 321 318 315 311 303 291 280 273 268 265 261 259 257 256 255 251 244 238 234
198 200 206 202 195 201 214 216 210 207 208 212 216 222 227 228 228 228 231 233 235 237 233 222 220 229 234 234 234 237 242 246 249 253 259 265 270 272 278 282 284 286 287 286 286 287 289 292 295 298 301 304 306 308 309 311 312 313 315 317 318 319 319 320 321 322 323 323 321 317 313 308 300 288 277 269 264 260 257 256 256 255 253 245 237 232
205 202 208 208 201 205 218 218 214 213 210 212 223 229 229 231 233 234 234 233 234 236 234 228 227 234 239 238 237 240 244 246 250 256 260 264 267 270 276 281 283 286 288 286 284 284 286 290 294 298 301 304 305 307 308 309 311 312 313 315 316 316 317 318 319 321 322 323 322 319 316 312 306 297 285 273 266 261 256 253 253 252 251 244 236 230
209 204 209 212 208 212 220 216 213 215 214 218 230 236 238 239 238 238 240 240 236 230 226 230 235 238 238 236 238 243 246 248 253 257 259 261 265 271 276 279 281 284 286 285 282 283 286 289 293 297 301 303 304 306 307 308 309 311 313 314 315 315 315 316 318 319 320 322 322 321 320 316 310 304 293 280 270 263 256 252 250 249 246 241 235 230
214 208 209 213 211 213 220 222 223 227 228 231 236 238 240 241 238 238 245 247 242 234 233 238 240 238 237 236 238 243 246 249 253 256 257 260 264 270 272 271 275 280 282 280 277 279 285 289 292 296 300 303 304 305 306 306 308 311 312 312 313 315 316 317 318 318 320 321 323 323 322 319 315 308 299 288 277 267 259 252 249 247 244 239 235 233
220 214 214 218 214 212 219 228 232 234 235 237 240 240 240 240 238 238 244 248 245 241 240 242 239 236 238 240 240 241 243 246 249 252 256 259 261 263 265 266 271 276 277 274 273 278 285 289 292 296 301 304 305 305 305 306 308 310 311 312 313 315 317 318 319 319 320 322 323 324 324 323 319 313 304 294 284 275 266 256 249 246 244 240 236 234
220 219 220 223 217 213 218 227 233 237 240 240 242 240 235 233 233 234 238 243 239 233 231 232 233 234 235 236 236 236 237 240 243 248 254 259 259 258 261 267 270 272 272 270 271 278 285 289 293 297 300 303 304 305 306 306 307 309 312 314 315 316 317 318 320 321 321 322 323 325 326 325 323 319 310 300 291 283 275 265 255 248 244 241 237 234
217 218 221 222 219 218 223 231 234 236 237 236 238 238 233 232 235 235 238 241 239 235 231 229 230 230 227 226 228 230 233 236 243 250 254 257 259 259 261 265 267 268 269 269 271 278 283 287 291 295 298 301 304 307 308 307 307 308 312 315 317 318 318 319 321 322 322 322 323 324 326 327 326 324 318 309 300 290 280 271 262 252 245 241 238 235
218 219 222 223 224 223 225 229 231 232 234 234 235 238 236 235 238 237 236 238 237 234 230 228 228 227 225 226 226 228 233 241 253 261 261 259 259 260 260 261 264 268 271 272 274 277 281 285 289 293 296 300 304 307 308 309 308 308 311 315 318 320 321 322 323 324 323 322 322 323 325 327 328 327 324 319 312 302 287 274 265 257 247 242 239 236
227 226 224 224 228 225 221 225 231 236 239 236 233 236 236 235 237 238 237 238 236 230 226 225 227 227 227 229 231 236 245 252 258 261 261 259 258 258 259 262 267 272 274 277 278 280 283 286 289 292 295 299 304 306 307 308 309 309 311 314 317 319 321 323 324 324 324 323 323 323 324 326 329 330 329 327 322 314 301 283 269 260 251 243 239 237
234 236 229 226 227 223 219 226 233 237 240 235 232 236 239 238 239 239 240 241 238 231 226 224 226 228 229 230 235 243 252 254 254 255 257 257 258 259 262 266 272 276 278 279 280 281 284 287 289 292 295 298 302 303 304 306 308 310 312 314 316 318 320 322 322 322 323 322 323 323 323 324 327 330 332 332 328 322 313 294 275 265 256 246 239 236
241 243 236 230 227 222 221 228 233 236 238 234 233 238 242 241 239 238 242 244 239 232 227 224 225 229 230 230 237 249 254 252 249 250 253 255 257 260 263 268 272 276 278 280 281 282 284 287 290 293 295 297 299 301 302 304 306 308 310 312 314 316 316 317 318 318 319 320 321 323 322 323 325 327 330 332 332 329 323 307 285 270 260 249 242 237
239 240 236 230 226 223 223 228 234 239 238 234 235 240 241 239 238 239 242 243 236 230 228 225 225 228 231 233 239 248 251 248 244 245 249 252 256 260 265 268 271 275 279 282 285 287 289 292 294 296 297 298 300 303 303 303 303 303 304 307 311 312 311 311 313 315 316 316 317 320 321 321 321 322 324 327 330 333 334 327 307 282 262 249 242 238
233 237 238 233 228 228 228 230 236 241 239 238 238 238 237 237 239 241 240 237 231 227 225 225 226 228 232 234 234 235 239 241 241 244 248 251 253 258 264 268 273 280 284 287 289 292 295 297 300 302 301 300 301 303 304 304 304 301 300 302 305 307 307 308 310 312 314 315 314 315 317 320 321 321 322 323 325 329 333 335 331 312 274 248 238 235
231 233 236 232 230 232 232 232 236 239 241 241 238 235 236 237 236 233 231 233 232 226 223 225 227 226 225 224 224 226 232 237 240 241 245 249 251 255 261 268 277 285 290 292 294 296 297 299 301 302 301 300 301 303 304 305 305 303 301 301 300 301 302 304 306 310 313 314 313 312 313 316 320 322 323 324 324 326 326 326 330 333 313 265 240 234
237 236 234 233 234 234 231 231 236 241 243 242 236 232 233 231 225 221 222 229 232 228 224 223 221 219 217 216 218 223 228 232 236 239 243 249 254 259 268 275 282 288 292 294 295 296 298 299 300 301 301 301 302 305 307 308 308 308 307 304 300 299 300 301 303 307 310 312 313 312 311 312 315 318 322 324 326 328 327 321 320 327 331 309 264 244
237 234 232 233 234 233 233 233 236 238 238 234 228 224 222 219 219 221 221 222 223 223 219 213 208 210 213 213 215 220 225 230 235 240 243 248 257 266 275 282 286 290 292 294 295 296 297 299 301 302 302 303 304 306 308 311 313 313 312 308 305 304 304 303 303 305 308 309 311 312 312 312 313 314 317 319 323 327 329 326 322 321 319 315 302 271
232 230 232 232 228 229 234 235 231 229 226 220 216 215 214 214 219 223 219 214 214 214 208 199 196 199 203 204 207 214 220 224 226 231 237 247 263 274 282 288 291 294 296 299 300 301 300 300 302 304 304 305 305 305 306 308 311 313 311 309 307 305 305 305 305 305 304 305 307 309 310 311 312 312 313 314 316 318 320 322 324 324 318 312 310 296
237 233 232 230 226 227 231 229 224 221 217 211 208 209 210 212 217 218 210 203 202 198 191 185 185 189 192 193 194 197 202 202 202 210 228 251 273 285 293 297 299 302 304 305 306 307 306 307 309 309 309 309 307 304 303 305 307 308 308 307 305 304 303 303 305 304 302 300 301 303 305 307 309 311 312 311 311 310 309 309 310 313 313 310 306 305
232 227 225 226 225 222 217 210 205 200 201 202 201 204 207 206 205 201 188 179 176 173 170 171 173 177 179 176 172 172 174 177 181 195 234 273 290 297 301 303 306 309 309 309 310 312 312 313 314 314 315 314 312 308 305 305 306 306 307 306 305 303 302 302 303 303 301 299 297 297 299 301 303 306 308 309 309 308 304 301 300 300 301 301 296 295
220 219 219 214 210 208 204 197 191 185 188 194 193 192 193 187 178 170 163 160 161 160 160 161 163 163 162 159 158 159 162 171 187 214 263 287 296 300 302 306 309 312 313 314 315 316 315 315 316 317 317 317 315 312 309 308 307 307 308 307 306 304 304 303 302 302 302 300 297 295 295 296 297 298 300 302 304 305 303 299 295 292 291 292 290 287
209 215 210 198 198 206 203 194 189 186 185 186 179 170 164 160 156 154 154 155 157 157 158 158 157 156 156 157 160 162 165 180 207 236 266 284 294 300 305 312 317 320 322 322 322 322 321 320 319 319 319 318 317 315 312 310 308 308 308 307 306 305 305 304 303 302 302 300 298 295 293 292 292 292 293 293 295 297 299 299 297 293 289 286 284 284
186 189 189 182 183 187 180 173 172 168 165 166 161 154 152 151 150 149 150 151 151 151 150 149 149 151 154 159 164 167 169 179 192 212 258 287 302 309 315 321 326 328 329 330 329 329 327 325 324 323 322 320 319 318 317 314 311 310 308 307 306 305 304 304 304 302 301 299 298 295 292 290 289 289 288 288 288 290 292 294 295 295 293 290 286 284